sat.trackr.live / text

‹ back to catalog

KORSAT-3

NORAD 63630 · 2025-081A

PAYLOAD ACTIVE UNKNOWN

§ Identity

Operator
Country
SKOR
Launch date
2025-04-22
Launch site
AFETR
Launch vehicle
Mass (kg)
RCS (m²)

External: N2YO · Heavens-Above · Gunter

§ Orbital elements

Epoch: 2026-09-21T21:34:53.599008Z

Period
96.04 min
Inclination
45.4109°
Eccentricity
0.0013381
Mean motion
14.99375974 rev/d
Perigee alt
559.5 km
Apogee alt
578.1 km
Semi-major
6,947.0 km
B*
1.9197e-4
RAAN
194.2470°
Arg perigee
21.3056°
Mean anomaly
338.8377°
Rev number
7,769

§ Raw data

KORSAT-31 63630U 25081A   26264.89923147  .00002155  00000+0  19197-3 0  99992 63630  45.4109 194.2470 0013381  21.3056 338.8377 14.99375974 77699

JSON: /api/v1/satellites/63630 · /tle

For live sub-satellite position, see the globe view (requires WebGL).

§ Visibility from observer

Set your observer location to see the next 7 days of passes ≥ 10°. The values pass through the URL so the page stays shareable.

No JS? Fill the form by hand. The geolocation button needs JavaScript.